#timestamp,LO_Frequency,Hit 
1505437215.8,286046995.6,N
1505437235.7,286046992.3,N
1505437255.5,286046993.0,N
1505437275.3,286046996.1,N
1505437295.2,286046997.2,N
1505437315.0,286047000.3,N
1505437315.9,286047000.3,N
1505437335.7,286046999.8,N
1505437355.6,286047001.2,N
1505437375.4,286047001.5,N
1505437395.2,286047002.6,N
1505437415.1,286047004.3,N
1505437416.0,286047004.3,N
1505437435.8,286047002.1,N
1505437455.6,286047005.6,N
1505437475.5,286047007.4,N
1505437495.3,286047005.9,N
1505437515.1,286046998.3,N
1505437535.9,286047000.9,N
1505437555.7,286046997.8,N
1505437575.5,286046995.9,N
1505437595.4,286046990.8,N
1505437615.2,286046987.4,N
1505437635.0,286046988.3,N
1505437635.9,286046988.3,N
1505437655.7,286046985.5,N
1505437675.6,286046988.7,N
1505437695.4,286046991.2,N
1505437715.2,286046994.8,N
1505437735.1,286046992.0,N
1505437736.0,286046992.0,N
1505437755.8,286046992.3,N
1505437775.6,286046996.3,N
1505437795.5,286046992.4,N
1505437815.3,286046995.9,N
1505437835.1,286046993.4,N
1505437855.9,286046997.6,N
1505437875.7,286046997.4,N
1505437895.5,286046997.8,N
1505437915.4,286046997.7,N
1505437935.2,286046997.9,N
1505437955.0,286046995.5,N
1505437955.9,286046995.5,N
1505437975.8,286046999.6,N
1505437995.6,286046995.6,N
1505438015.4,286046995.2,N
1505438035.2,286046998.0,N
1505438055.1,286046985.7,P
1505438056.0,286046985.7,P
1505438075.8,286046987.8,P
1505438095.7,286046992.0,N
1505438115.5,286046995.8,N
1505438135.3,286046998.7,N
1505438155.2,286047000.3,N
1505438175.9,286046999.1,N
1505438195.7,286047001.3,N
1505438215.5,286047001.4,N
1505438235.4,286047006.3,N
1505438255.2,286047006.2,N
1505438275.0,286047009.5,N
1505438275.9,286047009.5,N
1505438295.8,286047008.6,N
1505438315.6,286047005.2,N
1505438335.4,286047005.3,N
1505438355.3,286047002.2,N
1505438375.1,286047003.3,N
1505438376.0,286047003.3,N
1505438395.8,286047005.9,N
1505438415.7,286047007.0,N
1505438435.5,286047007.0,N
1505438455.3,286047009.7,N
1505438475.2,286047008.5,N
1505438495.9,286047004.5,N
1505438515.7,286047006.1,N
1505438535.5,286047010.4,N
1505438555.4,286047008.0,N
1505438575.2,286047011.8,N
1505438595.0,286047012.0,N
1505438595.9,286047012.0,N
1505438615.8,286047012.1,N
1505438635.6,286047013.6,N
1505438655.4,286047013.2,N
1505438675.3,286047010.7,N
1505438695.1,286047006.2,N
1505438715.8,286047011.9,P
1505438735.7,286047007.1,P
1505438755.5,286047004.8,N
1505438775.3,286047006.9,N
1505438795.2,286047004.5,N
1505438815.9,286047003.0,N
1505438835.7,286047004.3,N
1505438855.6,286047005.6,N
1505438875.4,286047006.7,N
1505438895.2,286047007.6,P
1505438915.1,286047001.2,N
1505438916.0,286047001.2,N
1505438935.8,286046997.8,N
1505438955.6,286046998.0,N
1505438975.5,286046998.0,N
1505438995.3,286046993.3,N
1505439015.1,286046993.4,N
1505439035.9,286046996.8,N
1505439055.7,286046993.0,N
1505439075.5,286046989.0,N
1505439095.4,286046988.3,N
1505439115.2,286046984.2,N
1505439135.0,286046984.6,N
1505439135.9,286046984.6,N
1505439155.7,286046989.5,N
1505439175.6,286046991.2,N
1505439195.4,286046988.0,N
1505439215.2,286046984.3,N
1505439235.1,286046987.5,N
1505439236.0,286046987.5,N
1505439255.8,286046987.2,N
1505439275.6,286046989.7,N
1505439295.5,286046988.9,N
1505439315.3,286046993.0,N
1505439335.1,286046996.4,N
1505439355.9,286046994.3,N
1505439375.7,286046990.7,N
1505439395.5,286046994.4,N
1505439415.4,286046990.1,N
1505439435.2,286046989.9,N
1505439455.0,286046986.7,N
1505439455.9,286046986.7,N
1505439475.8,286046984.8,P
1505439495.6,286046994.6,N
1505439515.4,286046996.1,N
1505439535.3,286046995.3,N
1505439555.1,286046997.6,N
1505439556.0,286046997.6,N
1505439575.8,286046992.6,N
1505439595.7,286046995.6,N
1505439615.5,286046997.6,N
1505439635.3,286046997.4,N
1505439655.1,286046998.4,N
1505439675.9,286046999.3,N
1505439695.7,286046996.5,N
1505439715.5,286046996.8,N
1505439735.4,286046995.5,N
1505439755.2,286046998.8,N
1505439775.0,286046996.4,N
1505439775.9,286046996.4,N
1505439795.8,286046989.9,P
1505439815.6,286046990.8,P
1505439835.4,286046984.9,P
1505439855.3,286046982.1,P
1505439875.1,286046995.6,N
1505439895.8,286046996.7,N
1505439915.7,286046995.5,N
1505439935.5,286046997.7,N
1505439955.3,286046998.7,N
1505439975.2,286046995.2,N
1505439995.9,286046995.1,N
1505440015.7,286046999.8,N
1505440035.6,286047001.0,N
1505440055.4,286046995.2,N
1505440075.2,286046990.4,N
1505440095.1,286046992.2,N
1505440096.0,286046992.2,N
1505440115.8,286046995.4,N
1505440135.6,286046995.6,N
1505440155.5,286046997.5,N
1505440175.3,286047001.3,N
1505440195.1,286047006.8,N
1505440215.8,286047007.3,N
1505440235.7,286047008.4,N
1505440255.5,286047008.2,N
1505440275.3,286047012.4,N
1505440295.2,286047011.7,N
1505440315.9,286047012.8,N
1505440335.7,286047012.5,N
1505440355.6,286047015.5,N
1505440375.4,286047018.2,N
1505440395.2,286047016.5,N
1505440415.1,286047017.5,N
1505440416.0,286047017.5,N
1505440435.8,286047016.1,N
1505440455.6,286047014.9,N
1505440475.5,286047010.9,N
1505440495.3,286047011.4,N
1505440515.1,286047015.5,N
1505440535.8,286047016.1,N
1505440555.7,286047016.1,N
1505440575.5,286047013.2,N
1505440595.3,286047014.8,N
1505440615.2,286047011.8,N
1505440635.0,286047011.3,N
1505440635.9,286047011.3,N
1505440655.7,286047014.8,N
1505440675.6,286047013.7,N
1505440695.4,286047014.0,N
1505440715.2,286047013.3,N
1505440735.1,286047016.6,P
1505440736.0,286047016.6,P
1505440755.8,286046998.4,N
1505440775.6,286047001.8,N
1505440795.5,286047001.5,N
